Location: Nitra
(0.0000°N, 18.0833°E)
Time: 14:26:38
(UTC+02:00)

N. Korean satellite - Pass Details

Date: 22 April 2021
Orbit: 450 x 501 km, 97.2° (Epoch: 15 May)

Event Time Altitude Azimuth Distance (km) Brightness Sun altitude
Rises 05:23:11 0° 26° (NNE) 2,477 10.7 -20.3°
Reaches altitude 10° 05:25:22 10° 36° (NE) 1,597 9.9 -19.7°
Maximum altitude 05:28:27 32° 101° (E) 806 8.3 -19.0°
Drops below altitude 10° 05:31:31 10° 166° (SSE) 1,587 9.2 -18.2°
Sets 05:33:41 0° 176° (S) 2,458 10.1 -17.7°
